User: anonymous   Login
Location: 相模原市立博物館
(35.5593°N, 139.3931°E)
Time: 13:38:39
(UTC+09:00)
Language:

SPROUT - Orbit

View from above orbital plane
View from above orbital plane
View from above satellite
View from above satellite

Ground track
Ground track

The orbit data is extracted from the following two-line orbital elements,

1 39770U 14029E   22024.60191961  .00002795  00000-0  30127-3 0  9994
2 39770  97.9312 141.0017 0008595 192.1981 167.9026 14.89229491416248
Epoch (UTC): 24 January 2022 14:26:45
Eccentricity: 0.0008595
inclination: 97.9312°
perigee height: 594 km
apogee height: 606 km
right ascension of ascending node: 141.0017°
argument of perigee: 192.1981°
revolutions per day: 14.89229491
mean anomaly at epoch: 167.9026°
orbit number at epoch: 41624

The dashed part of the orbit path shows where the satellite is in the earth's shadow,  

DLR